Weather History for Monterey, CA

Change the Weather History Date:

Tuesday, September 18, 2012

  Actual Average Record
Temperature  
Mean Temperature 58 °F 61 °F  
Max Temperature 61 °F 69 °F 88 °F (2009)
Min Temperature 54 °F 53 °F 50 °F (2005)
Degree Days  
Heating Degree Days 7    
Month to date heating degree days 115  
Since 1 July heating degree days 444  
Cooling Degree Days 0    
Month to date cooling degree days 0  
Year to date cooling degree days 0  
Growing Degree Days 6 (Base 50)    
Moisture  
Dew Point 51 °F    
Average Humidity 83    
Maximum Humidity 93    
Minimum Humidity 72    
Precipitation  
Precipitation 0.00 in - 0.02 in (2010)
Month to date precipitation 0.00  
Year to date precipitation 7.72  
Since 1 July precipitation 0.07  
Sea Level Pressure  
Sea Level Pressure 30.11 in    
Wind  
Wind Speed 7 mph (WSW)    
Max Wind Speed 14 mph    
Max Gust Speed 18 mph    
Visibility 10 miles    
Events      
T = Trace of Precipitation, MM = Missing Value Source: NWS Daily Summary

Daily Weather History Graph

Daily Weather History Graph

Search for Another Location

Airport:

Trip Planner

Search our weather history database for the weather conditions in past years. The results will help you decide how hot, cold, wet, or windy it might be!

Date:

Astronomy

Sep. 18, 2012 Rise Set
Actual Time 6:52 AM PDT 7:09 PM PDT
Civil Twilight 6:26 AM PDT 7:35 PM PDT
Nautical Twilight 5:56 AM PDT 8:05 PM PDT
Astronomical Twilight 5:25 AM PDT 8:36 PM PDT
Moon 9:51 AM PDT (9/18) 8:43 PM PDT (9/18)
Length of Visible Light 13h 08m
Length of Day
12h 16m
Waxing Crescent, 10% of the Moon is Illuminated
Sep 18
Waxing Crescent
Sep 22
First Quarter
Sep 29
Full
Oct 8
Last Quarter
Oct 15
New

Hourly Weather History & Observations

Time (PDT) Temp. Dew Point Humidity Pressure Visibility Wind Dir Wind Speed Gust Speed Precip Events Conditions
12:54 AM 55.4 °F 50.0 °F 82% 30.07 in 10.0 mi Calm Calm - N/A   Overcast
1:54 AM 55.0 °F 50.0 °F 83% 30.11 in 10.0 mi Variable 3.5 mph - N/A   Overcast
2:54 AM 55.0 °F 50.0 °F 83% 30.11 in 10.0 mi Calm Calm - N/A   Overcast
3:20 AM 53.6 °F 50.0 °F 88% 30.07 in 10.0 mi Calm Calm - N/A   Overcast
3:54 AM 54.0 °F 50.0 °F 86% 30.10 in 10.0 mi WSW 4.6 mph - N/A   Overcast
4:54 AM 54.0 °F 51.1 °F 90% 30.11 in 10.0 mi West 3.5 mph - N/A   Overcast
5:54 AM 54.0 °F 51.1 °F 90% 30.12 in 10.0 mi West 3.5 mph - N/A   Overcast
6:54 AM 54.0 °F 50.0 °F 86% 30.13 in 10.0 mi West 5.8 mph - N/A   Overcast
7:54 AM 54.0 °F 48.9 °F 83% 30.14 in 10.0 mi West 5.8 mph - N/A   Overcast
8:54 AM 55.0 °F 48.9 °F 80% 30.14 in 10.0 mi Calm Calm - N/A   Overcast
9:16 AM 55.4 °F 50.0 °F 82% 30.11 in 10.0 mi Calm Calm - N/A   Overcast
9:54 AM 59.0 °F 50.0 °F 72% 30.14 in 10.0 mi North - - N/A   Overcast
10:33 AM 60.8 °F 51.8 °F 72% 30.10 in 10.0 mi Variable 3.5 mph - N/A   Partly Cloudy
10:49 AM 59.0 °F 51.8 °F 77% 30.11 in 8.0 mi WNW 8.1 mph - N/A   Mostly Cloudy
10:54 AM 59.0 °F 51.1 °F 75% 30.14 in 7.0 mi NW 6.9 mph - N/A   Scattered Clouds
11:15 AM 59.0 °F 51.8 °F 77% 30.11 in 8.0 mi WNW 8.1 mph - N/A   Mostly Cloudy
11:28 AM 59.0 °F 51.8 °F 77% 30.10 in 7.0 mi NW 5.8 mph - N/A   Scattered Clouds
11:54 AM 59.0 °F 51.1 °F 75% 30.14 in 8.0 mi West 6.9 mph - N/A   Mostly Cloudy
12:28 PM 57.2 °F 51.8 °F 82% 30.10 in 8.0 mi WNW 8.1 mph - N/A   Overcast
12:54 PM 59.0 °F 51.1 °F 75% 30.14 in 9.0 mi West 6.9 mph - N/A   Overcast
1:10 PM 60.8 °F 51.8 °F 72% 30.10 in 10.0 mi WNW 8.1 mph - N/A   Scattered Clouds
1:54 PM 59.0 °F 50.0 °F 72% 30.12 in 10.0 mi WNW 10.4 mph - N/A   Scattered Clouds
2:54 PM 60.1 °F 51.1 °F 72% 30.11 in 10.0 mi WNW 11.5 mph - N/A   Clear
3:54 PM 60.1 °F 51.1 °F 72% 30.10 in 10.0 mi WNW 10.4 mph - N/A   Partly Cloudy
4:54 PM 60.1 °F 51.1 °F 72% 30.10 in 10.0 mi West 10.4 mph - N/A   Partly Cloudy
5:54 PM 60.1 °F 51.1 °F 72% 30.10 in 10.0 mi SW 12.7 mph - N/A   Clear
6:54 PM 57.9 °F 51.1 °F 78% 30.11 in 10.0 mi SW 10.4 mph - N/A   Clear
7:51 PM 57.2 °F 51.8 °F 82% 30.08 in 10.0 mi SSW 8.1 mph - N/A   Mostly Cloudy
7:54 PM 57.0 °F 51.1 °F 81% 30.12 in 10.0 mi SSW 6.9 mph - N/A   Mostly Cloudy
8:54 PM 55.9 °F 52.0 °F 87% 30.12 in 10.0 mi South 9.2 mph - N/A   Mostly Cloudy
9:01 PM 55.4 °F 51.8 °F 88% 30.08 in 10.0 mi South 8.1 mph - N/A   Scattered Clouds
9:54 PM 55.9 °F 51.1 °F 84% 30.12 in 10.0 mi South 6.9 mph - N/A   Clear
10:21 PM 55.4 °F 51.8 °F 88% 30.08 in 10.0 mi SSW 5.8 mph - N/A   Partly Cloudy
10:35 PM 55.4 °F 51.8 °F 88% 30.08 in 10.0 mi SSW 5.8 mph - N/A   Mostly Cloudy
10:54 PM 55.9 °F 52.0 °F 87% 30.13 in 10.0 mi SSW 5.8 mph - N/A   Mostly Cloudy
11:54 PM 55.9 °F 52.0 °F 87% 30.13 in 10.0 mi SW 6.9 mph - N/A   Overcast